Flag for Norway Weather past 2 weeks in Grimstad, Norway

Now
52 °F

Cool.


Feels Like: 49 °F
Forecast: 45 / 59 °F
Wind: 8 mph from North

Location: Torungen Fyr

Current Time: Oct 2, 2014 at 11:14:14 AM

Latest Report: Oct 2, 2014 at 10:00 AM


Visibility: N/A

Pressure: 30.29 "Hg

Humidity: 76%

Dew point: 45 °F

Location of GrimstadLocation

Historic Weather in Grimstad — Graph

°F

Grimstad temperature yesterday

Maximum temperature yesterday: 60 °F (at 8:00 PM)
Minimum temperature yesterday: 56 °F (at 11:00 AM)
Average temperature yesterday: 58 °F

Past Weeks' High & Low Weather Summary

 TemperatureHumidityPressure
High64 °F (Sep 21, 3:00 PM)97% (Sep 26, 9:00 AM)30.32 "Hg (Sep 26, 9:00 AM)
Low46 °F (Sep 23, 6:00 AM)35% (Sep 22, 3:00 PM)29.59 "Hg (Sep 25, 12:00 AM)
Average57 °F77%30.00 "Hg
* Reported Sep 17 9:00 AM — Oct 2 9:00 AM, Grimstad, Weather by CustomWeather, © 2014

Note: Actual official high and low records may vary slightly from our data, if they occured in-between our weather recording intervals... More about our weather records

Advertising

Grimstad weather history for previous 24 hours

 ConditionsComfort  
Time TempWeatherWind HumidityBarometerVisibility
9:00 AM
Oct 2
51 °FCool.6 mph82%30.28 "HgN/A
8:00 AM51 °FCool.7 mph85%30.25 "HgN/A
7:00 AM52 °FCool.7 mph87%30.23 "HgN/A
6:00 AM54 °FCool.3 mph94%30.22 "HgN/A
5:00 AM56 °FCool.3 mph96%30.21 "HgN/A
4:00 AM57 °FCool.3 mph96%30.20 "HgN/A
3:00 AM59 °FCool.6 mph97%30.19 "HgN/A
2:00 AM60 °FCool.8 mph97%30.18 "HgN/A
1:00 AM60 °FCool.8 mph96%30.18 "HgN/A
12:00 AM60 °FCool.10 mph97%30.18 "HgN/A
11:00 PM
Oct 1
59 °FCool.9 mph96%30.18 "HgN/A
10:00 PM60 °FCool.8 mph95%30.19 "HgN/A
9:00 PM60 °FCool.9 mph97%30.19 "HgN/A
8:00 PM60 °FCool.8 mph95%30.19 "HgN/A
7:00 PM60 °FCool.9 mph94%30.20 "HgN/A
6:00 PM59 °FCool.8 mph96%30.19 "HgN/A
5:00 PM58 °FCool.10 mph97%30.19 "HgN/A
4:00 PM58 °FCool.10 mph95%30.21 "HgN/A
3:00 PM58 °FCool.13 mph95%30.22 "HgN/A
2:00 PM57 °FCool.12 mph96%30.24 "HgN/A
1:00 PM57 °FCool.13 mph91%30.25 "HgN/A
12:00 PM57 °FCool.12 mph92%30.26 "HgN/A
11:00 AM56 °FCool.12 mph93%30.27 "HgN/A
Weather by CustomWeather, © 2014

See weather overviewHow to use our weather pages